Starlink 32696

operational
NORAD ID: 62310 Int'l Des: 2024-239 Owner: SPXS Country: US Constellation: starlink
LEOCIRCULAR

Starlink 32696について

説明を読み込み中...

リアルタイム位置

3D地球を読み込み中...

次回通過

高度履歴

Altitude vs Time

uPlot chart will show altitude changes over time

軌道要素

1 62310U 24239K 25354.28630584 .00013998 00000-0 48378-3 0 9990
2 62310 53.1571 202.9738 0001423 82.1490 277.9673 15.30204509 57227
Epoch: Dec 20, 2025 • Age: 17 hours

現在のステータス

高度 494.4 km
速度 7.62 km/s
衛星直下点 -52.76°S, 13.12°E
打ち上げ日 Dec 13, 2024
運用期間 1 years
タイプ internet

技術仕様

分類 Payload
質量 730.00 kg
乾燥質量 700.00 kg
総質量 730.00 kg
長さ 0.30 m
直径 4.10 m
スパン 29.00 m
形状 Box + pan
製造者 SPXS
バスタイプ Starlink V2M
フェーズステータス In Orbit
所有者/国 SPXS/US

大規模コンステレーション

Loading constellations...